NI0Z Weather Reports


Display with metric or nautical units.
time (UTC)temp
F
wind
direction
speed
MPH
gust
MPH
rain 1hr
in
rain 24hr
in
rain mn
in
humidity
%
barometer
mb
20260504004302 74 326 0.0 0.0 0.00 0.00 0.00 43
20260504003758 75 326 0.0 0.0 0.00 0.00 0.00 43
20260504003255 75 319 0.0 0.0 0.00 0.00 0.00 42
20260504002751 75 316 0.0 0.0 0.00 0.00 0.00 41
20260504002249 75 325 0.0 0.0 0.00 0.00 0.00 42
20260504001746 75 325 0.0 0.0 0.00 0.00 0.00 42
20260504001243 75 325 0.0 0.0 0.00 0.00 0.00 40
20260504000740 76 325 0.0 0.0 0.00 0.00 0.00 38
20260504000237 76 325 0.0 0.0 0.00 0.00 0.00 38
20260503235735 76 325 0.0 0.0 0.00 0.00 0.00 37
20260503235232 76 325 0.0 0.0 0.00 0.00 0.00 36
20260503234730 77 325 0.0 0.0 0.00 0.00 0.00 36
20260503234228 77 323 0.0 0.0 0.00 0.00 0.00 37
20260503233725 77 324 0.0 0.0 0.00 0.00 0.00 37
20260503233220 77 323 0.0 0.0 0.00 0.00 0.00 37
20260503232717 77 325 0.0 0.0 0.00 0.00 0.00 35
20260503232214 78 322 0.0 0.0 0.00 0.00 0.00 36
20260503231713 79 321 0.0 1.0 0.00 0.00 0.00 35
20260503231209 79 283 0.0 1.0 0.00 0.00 0.00 34
20260503230705 79 318 0.0 3.0 0.00 0.00 0.00 34
20260503230203 80 357 0.0 5.0 0.00 0.00 0.00 32
20260503225659 80 347 0.0 3.0 0.00 0.00 0.00 32
20260503225154 80 332 0.0 1.0 0.00 0.00 0.00 31
20260503224652 81 342 0.0 1.0 0.00 0.00 0.00 32
20260503224149 81 232 0.0 1.0 0.00 0.00 0.00 33
20260503223647 81 299 1.0 1.0 0.00 0.00 0.00 32
20260503223143 81 22 3.0 3.0 0.00 0.00 0.00 29
20260503222641 81 232 0.0 2.0 0.00 0.00 0.00 32
20260503222138 81 178 1.0 2.0 0.00 0.00 0.00 31
20260503221637 81 214 1.0 7.0 0.00 0.00 0.00 32
20260503221133 81 0 0.0 7.0 0.00 0.00 0.00 32
20260503220630 81 315 0.0 5.0 0.00 0.00 0.00 32
20260503220127 81 115 2.0 7.0 0.00 0.00 0.00 32
20260503215624 81 177 3.0 5.0 0.00 0.00 0.00 30
20260503215120 81 183 2.0 3.0 0.00 0.00 0.00 32
20260503214619 81 149 1.0 3.0 0.00 0.00 0.00 33
20260503214114 81 351 2.0 5.0 0.00 0.00 0.00 34
20260503213609 81 89 0.0 3.0 0.00 0.00 0.00 32
20260503213104 81 207 0.0 6.0 0.00 0.00 0.00 36
20260503212602 81 136 3.0 6.0 0.00 0.00 0.00 35
20260503212059 81 1 0.0 3.0 0.00 0.00 0.00 34
20260503211556 81 350 1.0 2.0 0.00 0.00 0.00 37
20260503211051 80 323 0.0 3.0 0.00 0.00 0.00 39
20260503210549 81 10 2.0 5.0 0.00 0.00 0.00 36
20260503210044 80 353 0.0 3.0 0.00 0.00 0.00 36
20260503205541 80 311 0.0 5.0 0.00 0.00 0.00 38
20260503205038 81 58 2.0 3.0 0.00 0.00 0.00 38
20260503204535 81 260 0.0 1.0 0.00 0.00 0.00 37
20260503204031 80 180 0.0 1.0 0.00 0.00 0.00 37
20260503203529 80 256 0.0 3.0 0.00 0.00 0.00 38
20260503203020 79 129 0.0 5.0 0.00 0.00 0.00 37
20260503202518 80 282 3.0 5.0 0.00 0.00 0.00 37
20260503202016 80 84 1.0 3.0 0.00 0.00 0.00 38
20260503201514 80 268 0.0 1.0 0.00 0.00 0.00 38
20260503201011 80 339 0.0 1.0 0.00 0.00 0.00 36
20260503200507 79 203 3.0 6.0 0.00 0.00 0.00 35
20260503200004 80 355 0.0 2.0 0.00 0.00 0.00 41
20260503195501 80 288 1.0 3.0 0.00 0.00 0.00 42
20260503194957 80 319 0.0 2.0 0.00 0.00 0.00 42
20260503194455 79 355 1.0 1.0 0.00 0.00 0.00 41
20260503193949 79 343 0.0 3.0 0.00 0.00 0.00 43
20260503193446 79 53 2.0 5.0 0.00 0.00 0.00 42
20260503192941 78 310 0.0 5.0 0.00 0.00 0.00 42
20260503192438 78 336 2.0 5.0 0.00 0.00 0.00 41
20260503191933 78 7 2.0 2.0 0.00 0.00 0.00 42
20260503191431 77 346 0.0 5.0 0.00 0.00 0.00 45
20260503190927 77 196 3.0 5.0 0.00 0.00 0.00 44
20260503190425 77 76 0.0 1.0 0.00 0.00 0.00 46
20260503185922 77 310 1.0 5.0 0.00 0.00 0.00 41
20260503185418 77 9 1.0 3.0 0.00 0.00 0.00 42
20260503184917 77 353 1.0 3.0 0.00 0.00 0.00 43
20260503184414 77 317 0.0 1.0 0.00 0.00 0.00 45
20260503183910 76 315 0.0 2.0 0.00 0.00 0.00 46
20260503183407 76 314 1.0 3.0 0.00 0.00 0.00 45
20260503182904 76 335 0.0 2.0 0.00 0.00 0.00 45
20260503182403 75 313 0.0 3.0 0.00 0.00 0.00 46
20260503181900 75 259 0.0 6.0 0.00 0.00 0.00 44
20260503181357 75 338 0.0 0.0 0.00 0.00 0.00 46
20260503180853 75 330 1.0 3.0 0.00 0.00 0.00 47
20260503180351 75 42 0.0 2.0 0.00 0.00 0.00 47
20260503175848 74 220 2.0 3.0 0.00 0.00 0.00 45
20260503175345 73 10 2.0 3.0 0.00 0.00 0.00 46
20260503174841 73 78 1.0 3.0 0.00 0.00 0.00 48
20260503174339 73 50 0.0 2.0 0.00 0.00 0.00 46
20260503173834 73 351 2.0 8.0 0.00 0.00 0.00 45
20260503173331 72 359 0.0 3.0 0.00 0.00 0.00 49
20260503172827 73 323 0.0 1.0 0.00 0.00 0.00 50
20260503172326 72 264 2.0 3.0 0.00 0.00 0.00 48
20260503171821 72 7 2.0 5.0 0.00 0.00 0.00 48
20260503171318 72 323 0.0 3.0 0.00 0.00 0.00 51
20260503170816 71 344 0.0 5.0 0.00 0.00 0.00 51
20260503170312 71 205 3.0 3.0 0.00 0.00 0.00 49
20260503150704 63 330 0.0 2.0 0.00 0.00 0.00 55
20260503150200 62 329 1.0 2.0 0.00 0.00 0.00 55
20260503140124 58 0 1.0 3.0 0.00 0.00 0.00 57
20260503131054 53 325 0.0 2.0 0.00 0.00 0.00 59
20260503130551 53 348 3.0 5.0 0.00 0.00 0.00 59
20260503110442 49 337 0.0 2.0 0.00 0.00 0.00 59
20260503090333 49 337 1.0 2.0 0.00 0.00 0.00 61
20260503081300 49 340 1.0 2.0 0.00 0.00 0.00 60
20260503080756 49 340 0.0 1.0 0.00 0.00 0.00 60
20260503080254 49 351 0.0 0.0 0.00 0.00 0.00 61
20260503072730 49 341 0.0 1.0 0.00 0.00 0.00 59
20260503072227 50 341 1.0 5.0 0.00 0.00 0.00 59
20260503071723 50 342 0.0 0.0 0.00 0.00 0.00 58
20260503071221 50 341 0.0 2.0 0.00 0.00 0.00 58
20260503070717 50 344 0.0 0.0 0.00 0.00 0.00 58
20260503070215 50 338 0.0 2.0 0.00 0.00 0.00 57
20260503060139 50 343 0.0 2.0 0.00 0.00 0.00 57
20260503054627 50 340 0.0 2.0 0.00 0.00 0.00 56
20260503054124 50 337 0.0 2.0 0.00 0.00 0.00 56
20260503053622 50 345 1.0 1.0 0.00 0.00 0.00 57
20260503053120 50 340 0.0 0.0 0.00 0.00 0.00 57
20260503052616 50 338 0.0 0.0 0.00 0.00 0.00 58
20260503052112 50 339 0.0 0.0 0.00 0.00 0.00 58
20260503051608 50 339 0.0 1.0 0.00 0.00 0.00 58
20260503051106 50 344 0.0 0.0 0.00 0.00 0.00 58
20260503050602 50 340 0.0 0.0 0.00 0.00 0.00 58
20260503050059 50 339 0.0 0.0 0.00 0.00 0.00 58
20260503045556 50 340 0.0 0.0 0.00 0.00 0.00 58
20260503045053 50 338 0.0 0.0 0.00 0.00 0.00 58
20260503044550 50 338 0.0 0.0 0.00 0.00 0.00 58
20260503044048 50 340 0.0 0.0 0.00 0.00 0.00 58
20260503043544 50 341 0.0 0.0 0.00 0.00 0.00 59
20260503043040 50 341 0.0 0.0 0.00 0.00 0.00 59
20260503042537 50 345 0.0 0.0 0.00 0.00 0.00 59
20260503042033 51 337 0.0 0.0 0.00 0.00 0.00 59
20260503041530 51 336 0.0 0.0 0.00 0.00 0.00 59
20260503041028 51 339 0.0 0.0 0.00 0.00 0.00 59
20260503040525 51 338 0.0 0.0 0.00 0.00 0.00 59
20260503040023 51 338 0.0 0.0 0.00 0.00 0.00 58
20260503035519 51 337 0.0 0.0 0.00 0.00 0.00 58
20260503035017 51 339 0.0 0.0 0.00 0.00 0.00 57
20260503034514 51 333 0.0 0.0 0.00 0.00 0.00 56
20260503034011 51 337 0.0 0.0 0.00 0.00 0.00 54
20260503033508 51 333 0.0 0.0 0.00 0.00 0.00 53
20260503033006 51 333 0.0 0.0 0.00 0.00 0.00 52
20260503032504 51 334 0.0 0.0 0.00 0.00 0.00 52
20260503032002 52 331 0.0 0.0 0.00 0.00 0.00 51
20260503031500 52 331 0.0 0.0 0.00 0.00 0.00 51
20260503030955 52 331 0.0 0.0 0.00 0.00 0.00 51
20260503030452 52 331 0.0 0.0 0.00 0.00 0.00 50
20260503025949 52 331 0.0 0.0 0.00 0.00 0.00 50
20260503025446 52 331 0.0 0.0 0.00 0.00 0.00 50
20260503024943 52 330 0.0 0.0 0.00 0.00 0.00 53
20260503024440 53 330 0.0 0.0 0.00 0.00 0.00 53
20260503023937 53 330 0.0 0.0 0.00 0.00 0.00 49
20260503023434 52 330 0.0 0.0 0.00 0.00 0.00 50
20260503022931 53 331 0.0 0.0 0.00 0.00 0.00 52
20260503022426 53 330 0.0 0.0 0.00 0.00 0.00 50
20260503021922 52 328 0.0 0.0 0.00 0.00 0.00 54
20260503021418 52 328 0.0 0.0 0.00 0.00 0.00 59
20260503020916 52 328 0.0 0.0 0.00 0.00 0.00 56
20260503020414 52 328 0.0 0.0 0.00 0.00 0.00 56
20260503015909 53 328 0.0 0.0 0.00 0.00 0.00 58
20260503015407 53 328 0.0 0.0 0.00 0.00 0.00 56
20260503014903 53 328 0.0 0.0 0.00 0.00 0.00 56
20260503014400 54 328 0.0 0.0 0.00 0.00 0.00 54
20260503013858 54 328 0.0 0.0 0.00 0.00 0.00 51
20260503013354 55 328 0.0 0.0 0.00 0.00 0.00 49
20260503012852 55 328 0.0 0.0 0.00 0.00 0.00 50
20260503012349 55 328 0.0 0.0 0.00 0.00 0.00 47
20260503011846 56 328 0.0 0.0 0.00 0.00 0.00 46
20260503011343 56 328 0.0 0.0 0.00 0.00 0.00 45
20260503010839 57 327 0.0 0.0 0.00 0.00 0.00 44
20260503010336 57 327 0.0 0.0 0.00 0.00 0.00 42
20260503005833 58 327 0.0 0.0 0.00 0.00 0.00 42
20260503005331 59 327 0.0 0.0 0.00 0.00 0.00 41
20260503004827 59 327 0.0 0.0 0.00 0.00 0.00 40